Change the Weather History Date:

Sunday, February 24, 2013

  Actual Average Record
Temperature  
Mean Temperature 59 °F 58 °F  
Max Temperature 71 °F 68 °F 80 °F (2000)
Min Temperature 47 °F 47 °F 25 °F (1968)
Degree Days  
Heating Degree Days 6 8  
Month to date heating degree days 135 248  
Since 1 July heating degree days 851 1185  
Cooling Degree Days 0 1  
Month to date cooling degree days 10 20  
Year to date cooling degree days 48 32  
Growing Degree Days 9 (Base 50)    
Moisture  
Dew Point 54 °F    
Average Humidity 74    
Maximum Humidity 90    
Minimum Humidity 57    
Precipitation  
Precipitation 1.05 in 0.15 in 1.65 in (1979)
Month to date precipitation 3.95 3.59  
Year to date precipitation 16.75 8.81  
Sea Level Pressure  
Sea Level Pressure 29.84 in    
Wind  
Wind Speed 8 mph (ENE)    
Max Wind Speed 14 mph    
Max Gust Speed 17 mph    
Visibility 7 miles    
Events Rain , Thunderstorm    
T = Trace of Precipitation, MM = Missing Value Source: NWS Daily Summary

Daily Weather History Graph

Daily Weather History Graph

Search for Another Location

Airport or City:

Trip Planner

Search our weather history database for the weather conditions in past years. The results will help you decide how hot, cold, wet, or windy it might be!

Date:

Astronomy

Feb. 24, 2013 Rise Set
Actual Time 6:38 AM CST 6:03 PM CST
Civil Twilight 6:14 AM CST 6:27 PM CST
Nautical Twilight 5:46 AM CST 6:55 PM CST
Astronomical Twilight 5:18 AM CST 7:23 PM CST
Moon 5:14 PM CST (2/24) 5:34 AM CST (2/24)
Length of Visible Light 12h 13m
Length of Day
11h 24m
Waxing Gibbous, 99% of the Moon is Illuminated
Feb 24
Waxing Gibbous
Feb 25
Full
Mar 4
Last Quarter
Mar 11
New
Mar 19
First Quarter

Hourly Weather History & Observations

Time (CST) Temp. Dew Point Humidity Pressure Visibility Wind Dir Wind Speed Gust Speed Precip Events Conditions
12:53 AM 53.1 °F 45.0 °F 74% 29.98 in 10.0 mi NNE 6.9 mph - N/A   Clear
1:53 AM 52.0 °F 44.1 °F 74% 29.97 in 10.0 mi NNE 5.8 mph - N/A   Clear
2:53 AM 52.0 °F 45.0 °F 77% 29.95 in 10.0 mi NE 8.1 mph - N/A   Clear
3:53 AM 50.0 °F 44.1 °F 80% 29.94 in 10.0 mi NE 5.8 mph - N/A   Clear
4:53 AM 50.0 °F 45.0 °F 83% 29.93 in 10.0 mi NE 9.2 mph - N/A   Clear
6:53 AM 48.9 °F 44.1 °F 83% 29.94 in 10.0 mi ENE 4.6 mph - N/A   Clear
7:53 AM 53.1 °F 46.9 °F 80% 29.96 in 10.0 mi ENE 8.1 mph - N/A   Clear
8:53 AM 57.0 °F 48.0 °F 72% 29.98 in 10.0 mi ENE 9.2 mph - N/A   Clear
9:53 AM 61.0 °F 48.9 °F 64% 29.97 in 10.0 mi NE 9.2 mph - N/A   Clear
10:53 AM 64.9 °F 51.1 °F 61% 29.97 in 10.0 mi NE 8.1 mph - N/A   Clear
11:53 AM 69.1 °F 53.1 °F 57% 29.93 in 10.0 mi NNE 9.2 mph - N/A   Clear
12:53 PM 70.0 °F 53.1 °F 55% 29.90 in 10.0 mi East 3.5 mph - N/A   Partly Cloudy
1:53 PM 70.0 °F 54.0 °F 57% 29.88 in 10.0 mi East 4.6 mph - N/A   Partly Cloudy
2:53 PM 70.0 °F 55.0 °F 59% 29.86 in 10.0 mi East 9.2 mph - N/A   Scattered Clouds
3:53 PM 69.1 °F 55.9 °F 63% 29.84 in 10.0 mi East 8.1 mph - N/A   Mostly Cloudy
4:53 PM 68.0 °F 55.9 °F 65% 29.81 in 10.0 mi East 9.2 mph - N/A   Overcast
5:09 PM 66.2 °F 55.4 °F 68% 29.81 in 10.0 mi East 11.5 mph - N/A   Overcast
5:53 PM 66.0 °F 55.9 °F 70% 29.81 in 10.0 mi East 11.5 mph - N/A   Overcast
6:12 PM 66.2 °F 55.4 °F 68% 29.79 in 10.0 mi ENE 12.7 mph - 0.00 in Rain , Thunderstorm Light Thunderstorms and Rain
6:45 PM 62.6 °F 57.2 °F 82% 29.80 in 1.8 mi ENE 8.1 mph - 0.35 in Rain , Thunderstorm Heavy Thunderstorms and Rain
6:53 PM 63.0 °F 57.9 °F 84% 29.80 in 1.2 mi East 11.5 mph - 0.44 in Rain , Thunderstorm Thunderstorms and Rain
6:57 PM 62.6 °F 57.2 °F 82% 29.80 in 3.0 mi East 10.4 mph - 0.01 in Rain , Thunderstorm Light Thunderstorms and Rain
7:08 PM 62.6 °F 57.2 °F 82% 29.80 in 6.0 mi East 10.4 mph - 0.01 in Rain Light Rain
7:23 PM 62.6 °F 59.0 °F 88% 29.80 in 7.0 mi ENE 4.6 mph - 0.01 in Thunderstorm Thunderstorm
7:37 PM 62.6 °F 57.2 °F 82% 29.79 in 2.5 mi East 8.1 mph - 0.15 in Rain , Thunderstorm Thunderstorms and Rain
7:39 PM 62.6 °F 57.2 °F 82% 29.79 in 3.0 mi East 9.2 mph - 0.18 in Rain , Thunderstorm Thunderstorms and Rain
7:41 PM 62.6 °F 57.2 °F 82% 29.79 in 2.5 mi North - - 0.24 in Rain , Thunderstorm Thunderstorms and Rain
7:51 PM 62.6 °F 57.2 °F 82% 29.79 in 1.5 mi North - - 0.52 in Rain , Thunderstorm Heavy Thunderstorms and Rain
7:53 PM 62.1 °F 57.9 °F 86% 29.80 in 1.8 mi North - - 0.53 in Rain , Thunderstorm Heavy Thunderstorms and Rain
7:58 PM 62.6 °F 57.2 °F 82% 29.78 in 3.0 mi North - - 0.00 in Rain , Thunderstorm Thunderstorms and Rain
8:11 PM 62.6 °F 59.0 °F 88% 29.80 in 7.0 mi North - - 0.02 in Rain , Thunderstorm Light Thunderstorms and Rain
8:15 PM 62.6 °F 59.0 °F 88% 29.79 in 8.0 mi North - - 0.02 in Rain , Thunderstorm Light Thunderstorms and Rain
8:32 PM 62.6 °F 59.0 °F 88% 29.79 in 5.0 mi North - - 0.05 in Rain , Thunderstorm Thunderstorms and Rain
8:44 PM 62.6 °F 59.0 °F 88% 29.79 in 5.0 mi North - - 0.07 in Rain , Thunderstorm Light Thunderstorms and Rain
8:53 PM 63.0 °F 59.0 °F 87% 29.78 in 5.0 mi North - - 0.07 in Rain , Thunderstorm Light Thunderstorms and Rain
9:01 PM 62.6 °F 59.0 °F 88% 29.78 in 5.0 mi North - - 0.01 in Rain , Thunderstorm Light Thunderstorms and Rain
9:08 PM 62.6 °F 59.0 °F 88% 29.78 in - North - - 0.01 in Thunderstorm Unknown
9:53 PM - - N/A% 29.75 in - North - - 0.01 in Thunderstorm Thunderstorm
10:51 PM - - N/A% 29.74 in - North - - N/A   Unknown
10:53 PM - - N/A% 29.73 in - North - - N/A   Unknown
11:17 PM - - N/A% 29.78 in - North - - N/A Thunderstorm Unknown
11:31 PM - - N/A% 29.72 in - North - - N/A Thunderstorm Unknown
11:53 PM - - N/A% 29.73 in - North - - N/A   Unknown